Montgomery, NY

1:03 AM EDT on April 29, 2017 (GMT -0400)
Orange County

Weather History for KMGJ - June, 2013

Change the Weather History Date:

Sunday, June 30, 2013

  Actual Average (KSWF) Record (KSWF)
Temperature  
Mean Temperature 72 °F -  
Max Temperature 84 °F 80 °F 94 °F (1991)
Min Temperature 62 °F 60 °F 41 °F (1988)
Cooling Degree Days 7    
Growing Degree Days 22 (Base 50)    
Moisture  
Dew Point 67 °F    
Average Humidity 86    
Maximum Humidity 100    
Minimum Humidity 67    
Precipitation  
Precipitation 0.12 in - - ()
Sea Level Pressure  
Sea Level Pressure 29.83 in    
Wind  
Wind Speed 2 mph (North)    
Max Wind Speed 20 mph    
Max Gust Speed 34 mph    
Visibility 8 miles    
Events Rain    
Averages and records for this station are not official NWS values.
T = Trace of Precipitation, MM = Missing Value Source: NWS Daily Summary

Daily Weather History Graph

Daily Weather History Graph

Search for Another Location

Airport or City:

Trip Planner

Search our weather history database for the weather conditions in past years. The results will help you decide how hot, cold, wet, or windy it might be!

Date:

Astronomy

Jun. 30, 2013 Rise Set
Actual Time 5:26 AM EDT 8:34 PM EDT
Civil Twilight 4:52 AM EDT 9:08 PM EDT
Nautical Twilight 4:09 AM EDT 9:52 PM EDT
Astronomical Twilight 3:17 AM EDT 10:43 PM EDT
Moon 12:27 AM EDT (6/30) 1:43 PM EDT (6/30)
Length of Visible Light 16h 16m
Length of Day
15h 08m
Last Quarter, 45% of the Moon is Illuminated
Jun 30
Last Quarter
Jul 8
New
Jul 15
First Quarter
Jul 22
Full
Jul 29
Last Quarter

Hourly Weather History & Observations

Time (EDT) Temp. Heat Index Dew Point Humidity Pressure Visibility Wind Dir Wind Speed Gust Speed Precip Events Conditions
12:54 AM 64.9 °F - 63.0 °F 93% 29.71 in 8.0 mi Calm Calm - 0.00 in   Clear
1:54 AM 64.9 °F - 63.0 °F 93% 29.72 in 6.0 mi Calm Calm - N/A   Clear
2:54 AM 64.0 °F - 63.0 °F 96% 29.73 in 5.0 mi Calm Calm - N/A   Clear
3:54 AM 64.0 °F - 62.1 °F 93% 29.73 in 5.0 mi Calm Calm - N/A   Clear
4:54 AM 63.0 °F - 61.0 °F 93% 29.74 in 5.0 mi Calm Calm - N/A   Clear
5:40 AM 62.6 °F - 62.6 °F 100% 29.76 in 2.5 mi Calm Calm - N/A   Clear
5:54 AM 62.1 °F - 61.0 °F 96% 29.76 in 3.0 mi Calm Calm - N/A   Clear
6:54 AM 66.9 °F - 64.0 °F 90% 29.78 in 5.0 mi Calm Calm - N/A   Clear
7:54 AM 71.1 °F - 66.0 °F 84% 29.81 in 10.0 mi Calm Calm - N/A   Partly Cloudy
8:54 AM 75.0 °F - 66.0 °F 73% 29.81 in 10.0 mi Calm Calm - N/A   Clear
9:54 AM 78.1 °F - 68.0 °F 71% 29.81 in 10.0 mi Calm Calm - N/A   Clear
10:54 AM 80.1 °F 83.2 °F 70.0 °F 71% 29.81 in 10.0 mi Calm Calm - N/A   Partly Cloudy
11:54 AM 82.0 °F 85.9 °F 70.0 °F 67% 29.81 in 10.0 mi Calm Calm - N/A   Mostly Cloudy
12:12 PM 80.6 °F 83.9 °F 69.8 °F 70% 29.81 in 10.0 mi NNW 3.5 mph - N/A   Overcast
12:49 PM 82.4 °F 87.2 °F 71.6 °F 70% 29.80 in 10.0 mi Calm Calm - N/A   Mostly Cloudy
12:54 PM 82.0 °F 86.3 °F 71.1 °F 69% 29.80 in 10.0 mi Calm Calm - N/A   Scattered Clouds
1:54 PM 78.1 °F - 72.0 °F 81% 29.80 in 3.0 mi WNW 3.5 mph - 0.04 in Rain Rain
2:54 PM 79.0 °F - 73.9 °F 84% 29.79 in 10.0 mi NW 5.8 mph - 0.03 in   Mostly Cloudy
3:19 PM 78.8 °F - 73.4 °F 83% 29.82 in 10.0 mi East 8.1 mph - N/A   Overcast
3:43 PM 78.8 °F - 71.6 °F 78% 29.80 in 10.0 mi East 6.9 mph - N/A   Mostly Cloudy
3:54 PM 78.1 °F - 71.1 °F 79% 29.80 in 9.0 mi SE 8.1 mph - 0.00 in Rain Light Rain
4:22 PM 73.4 °F - 69.8 °F 88% 29.83 in 3.0 mi NNW 19.6 mph 34.5 mph 0.05 in Rain Light Rain
4:28 PM 71.6 °F - 69.8 °F 94% 29.84 in 8.0 mi West 13.8 mph 34.5 mph 0.05 in Rain Light Rain
4:38 PM 71.6 °F - 69.8 °F 94% 29.85 in 10.0 mi NW 10.4 mph 20.7 mph 0.05 in Rain Light Rain
4:54 PM 71.1 °F - 66.9 °F 87% 29.85 in 10.0 mi North 12.7 mph - 0.05 in   Overcast
5:03 PM 71.6 °F - 66.2 °F 83% 29.85 in 10.0 mi North 10.4 mph - N/A   Overcast
5:40 PM 71.6 °F - 66.2 °F 83% 29.87 in 10.0 mi North 6.9 mph - N/A   Overcast
5:54 PM 71.1 °F - 66.9 °F 87% 29.86 in 10.0 mi NNE 8.1 mph - N/A   Mostly Cloudy
6:54 PM 71.1 °F - 66.9 °F 87% 29.88 in 10.0 mi ENE 5.8 mph - N/A   Overcast
7:54 PM 71.1 °F - 68.0 °F 90% 29.88 in 10.0 mi Calm Calm - 0.00 in   Overcast
8:24 PM 69.8 °F - 68.0 °F 94% 29.89 in 10.0 mi Calm Calm - N/A   Overcast
8:54 PM 70.0 °F - 68.0 °F 93% 29.88 in 10.0 mi Calm Calm - N/A   Overcast
9:54 PM 69.1 °F - 68.0 °F 96% 29.90 in 10.0 mi Calm Calm - N/A   Overcast
10:22 PM 69.8 °F - 66.2 °F 88% 29.91 in 9.0 mi Calm Calm - N/A   Mostly Cloudy
10:54 PM 68.0 °F - 66.9 °F 96% 29.91 in 10.0 mi Calm Calm - N/A   Mostly Cloudy
11:07 PM 68.0 °F - 66.2 °F 94% 29.91 in 9.0 mi WSW 3.5 mph - N/A   Scattered Clouds
11:12 PM 68.0 °F - 66.2 °F 94% 29.91 in 9.0 mi Calm Calm - N/A   Mostly Cloudy
11:20 PM 68.0 °F - 66.2 °F 94% 29.91 in 9.0 mi Calm Calm - N/A   Mostly Cloudy
11:54 PM 69.1 °F - 66.9 °F 93% 29.92 in 10.0 mi Calm Calm - N/A   Overcast